Location: Caltech
(34.1382°N, 118.1253°W)
Time: 06:04:11
(UTC-07:00)

TMSAT-1 - Visible Passes

Search period start: 25 May 2016 00:00
Search period end: 04 June 2016 00:00
Orbit: 808 x 813 km, 98.5° (Epoch: 24 May)

Date Brightness Start Highest point End Pass type
(mag) Time Alt. Az. Time Alt. Az. Time Alt. Az.
25 May 11.5 01:52:53 10° ENE 01:55:14 13° E 01:55:32 13° E visible
25 May 9.2 03:30:14 10° N 03:35:29 63° WNW 03:36:42 49° SW visible
26 May 9.1 03:06:38 10° NNE 03:11:58 77° ESE 03:12:53 61° SSE visible
26 May 11.1 04:49:26 10° NW 04:51:08 12° WNW 04:52:50 10° W visible
27 May 9.8 02:43:18 10° NNE 02:48:22 44° E 02:49:04 42° ESE visible
27 May 10.7 04:24:10 10° NNW 04:27:53 20° WNW 04:30:12 15° W visible
28 May 10.6 02:20:18 10° NE 02:24:42 26° E 02:25:14 25° ESE visible
28 May 10.0 03:59:52 10° N 04:04:33 32° WNW 04:06:24 26° WSW visible
29 May 11.3 01:57:59 10° ENE 02:00:57 15° E 02:01:25 15° E visible
29 May 9.3 03:35:57 10° N 03:41:07 55° WNW 03:42:34 42° WSW visible
30 May 9.0 03:12:16 10° NNE 03:17:37 88° ESE 03:18:45 57° S visible
31 May 9.6 02:48:52 10° NNE 02:54:03 51° E 02:54:55 46° SE visible
31 May 10.8 04:30:06 10° NNW 04:33:28 17° WNW 04:36:04 13° W visible
01 Jun 10.4 02:25:46 10° NE 02:30:23 30° E 02:31:05 29° ESE visible
01 Jun 10.2 04:05:40 10° NNW 04:10:09 29° WNW 04:12:15 22° WSW visible
02 Jun 11.1 02:03:13 10° NE 02:06:40 17° E 02:07:15 17° ESE visible
02 Jun 9.5 03:41:39 10° N 03:46:44 48° WNW 03:48:25 36° WSW visible
03 Jun 9.0 03:17:56 10° N 03:23:16 82° WNW 03:24:34 53° SSW visible
